Regional Weather Roundup
Issued by NWS

Home | Current Version | Previous Version | Text Only | Print | Product List | Glossary Off
Versions: 1 2 3 4 5 6 7 8 9 10 11 12 13 14 15 16 17 18 19 20 21 22 23 24 25 26 27 28 29 30 31 32 33 34 35 36 37 38 39 40 41 42 43 44 45 46 47 48 49 50

000
ASUS43 KOAX 151502
RWRNE

WEATHER ROUNDUP FOR NEBRASKA
NATIONAL WEATHER SERVICE OMAHA NE
900 AM CST MON JAN 15 2018

NOTES: SATELLITE DATA IS BEING USED TO AUGMENT CLOUD COVER ABOVE
       12000 FEET.
       "FAIR" INDICATES FEW OR NO CLOUDS BELOW 12,000 FEET WITH NO
       SIGNIFICANT WEATHER AND/OR OBSTRUCTIONS TO VISIBILITY.


NEZ001>004-019>022-054>056-151600-
NEBRASKA PANHANDLE

CITY           SKY/WX    TMP DP  RH WIND       PRES   REMARKS
SCOTTSBLUFF    CLEAR      9  -2  61 NW17      30.51R WCI  -9
ALLIANCE       CLEAR     -2  -8  76 N16       30.50R WCI -23
CHADRON        PTCLDY    -8 -13  78 W5        30.63R WCI -19
GORDON         FAIR      -3 -10  74 N13G21    30.55R WCI -22
KIMBALL        CLEAR     11  -3  52 N15       30.42R WCI  -5
SIDNEY         CLEAR      7   1  76 N9        30.46R WCI  -7
$$

NEZ057>060-069>072-079>082-151600-
SOUTHWEST NEBRASKA

CITY           SKY/WX    TMP DP  RH WIND       PRES   REMARKS
NORTH PLATTE   CLEAR      2  -7  66 NW13      30.56R WCI -15
IMPERIAL       CLEAR      8  -6  52 N17G24    30.53R WCI -10
LEXINGTON      CLEAR      5  -3  71 NW14      30.57R WCI -13
MCCOOK         PTCLDY     9  -1  64 NW13      30.57R WCI  -7
OGALLALA       CLEAR      6  -6  57 NW13      30.54R WCI -10
$$

NEZ005>010-023>029-035>040-094-151600-
NORTH CENTRAL NEBRASKA

CITY           SKY/WX    TMP DP  RH WIND       PRES   REMARKS
VALENTINE      CLOUDY    -4 -12  68 NW18G30   30.60R HAZE    WCI -26
AINSWORTH      CLOUDY    -4  -9  80 N23G31    30.57R HAZE    WCI -29
BROKEN BOW     CLEAR      0  -8  69 N20       30.53R WCI -22
O`NEILL        MOCLDY    -2  -7  80 NW20      30.56S WCI -24
ORD            PTCLDY     0  -7  72 N18G29    30.55R WCI -21
THEDFORD       CLEAR     -2  -8  74 N17       30.55R WCI -23
$$

NEZ041-046>049-061>064-073>077-083>087-151600-
SOUTH CENTRAL NEBRASKA

CITY           SKY/WX    TMP DP  RH WIND       PRES   REMARKS
GRAND ISLAND   CLEAR      2  -5  72 NW18      30.57R WCI -19
AURORA         PTCLDY     2  -5  72 NW15      30.56R WCI -17
HASTINGS       PTCLDY     3  -4  72 N12       30.57R WCI -13
HEBRON         MOSUNNY    7  -2  67 NW12      30.58R WCI  -9
HOLDREGE       CLEAR      4  -3  72 N17G26    30.56R WCI -15
KEARNEY        CLEAR      1  -5  75 NW13      30.58R WCI -17
YORK           PTCLDY     3  -2  78 NW20G26   30.56R WCI -18
$$

NEZ011>018-030>034-042>045-151600-
NORTHEAST NEBRASKA

CITY           SKY/WX    TMP DP  RH WIND       PRES   REMARKS
NORFOLK        CLEAR     -1  -7  75 NW23G32   30.53R WCI -25
ALBION         PTCLDY     1  -6  73 N18G25    30.54R WCI -20
BLAIR          SUNNY      2  -6  70 NW18G24   30.51R WCI -19
COLUMBUS       CLEAR      2  -5  72 NW22      30.56R WCI -20
FREMONT        SUNNY      2  -6  70 NW20G28   30.55R WCI -19
TEKAMAH        SUNNY      1  -8  66 NW24G35   30.56R WCI -22
WAYNE          PTCLDY    -1  -8  72 NW18G29   30.54R WCI -23
$$

NEZ050>053-065>068-078-088>093-151600-
SOUTHEAST NEBRASKA

CITY           SKY/WX    TMP DP  RH WIND       PRES   REMARKS
LINCOLN        SUNNY      5  -5  63 NW18      30.58R WCI -15
OMAHA EPPLEY   MOSUNNY    2  -6  69 NW24G36   30.53R WCI -21
BEATRICE       SUNNY      7  -2  67 NW22      30.56R WCI -14
FALLS CITY     SUNNY      5  -4  66 NW17G29   30.54R WCI -14
NEBRASKA CITY  MOSUNNY    4  -3  72 NW13      30.54R WCI -13
PLATTSMOUTH    SUNNY      3  -5  71 NW23G30   30.52R HAZE    WCI -20
$$

NEZ044-045-051>053-067-151600-
OMAHA AREA

CITY           SKY/WX    TMP DP  RH WIND       PRES   REMARKS
OMAHA EPPLEY   MOSUNNY    2  -6  69 NW24G36   30.53R WCI -21
BLAIR          SUNNY      2  -6  70 NW18G24   30.51R WCI -19
FREMONT        SUNNY      2  -6  70 NW20G28   30.55R WCI -19
MILLARD        SUNNY      4  -5  65 NW14G22   30.56R WCI -13
OFFUTT AFB     SUNNY      3  -7  62 NW16G26   30.53R WCI -17
PLATTSMOUTH    SUNNY      3  -5  71 NW23G30   30.52R HAZE    WCI -20
WAHOO          FAIR       3  -6  66 NW20G26   30.56R WCI -18
$$




USA.gov is the U.S. government's official web portal to all federal, state and local government web resources and services.